Flag for France Weather past 2 weeks in Bordeaux, France

Now
37 °F

Passing clouds.


Feels Like: 30 °F
Forecast: 36 / 46 °F
Wind: 10 mph from Northwest

Location: Bordeaux / Merignac

Current Time: Feb 1, 2015 at 8:34:08 AM

Latest Report: Feb 1, 2015 at 8:00 AM


Visibility: N/A

Pressure: 29.68 "Hg

Humidity: 87%

Dew point: 34 °F

Location of BordeauxLocation

Historic Weather in Bordeaux — Graph

°F

Bordeaux temperature yesterday

Maximum temperature yesterday: 45 °F (at 12:30 PM)
Minimum temperature yesterday: 39 °F (at 5:00 AM)
Average temperature yesterday: 41 °F

Past Weeks' High & Low Weather Summary

 TemperatureHumidityPressure
High55 °F (Jan 29, 5:30 PM)100% (Jan 17, 8:00 AM)30.60 "Hg (Jan 17, 8:00 AM)
Low27 °F (Jan 24, 3:00 AM)53% (Jan 25, 3:00 PM)29.15 "Hg (Jan 30, 11:30 PM)
Average40 °F88%29.98 "Hg
* Reported Jan 17 7:00 AM — Feb 1 7:30 AM, Bordeaux, Weather by CustomWeather, © 2014

Note: Actual official high and low records may vary slightly from our data, if they occured in-between our weather recording intervals... More about our weather records

Advertising

Bordeaux weather history for previous 24 hours

 ConditionsComfort  
Time TempWeatherWind HumidityBarometerVisibility
7:30 AM
Feb 1
37 °FPassing clouds.8 mph87%29.68 "HgN/A
7:00 AM37 °FPassing clouds.6 mph87%29.65 "HgN/A
6:30 AM37 °FPartly cloudy.8 mph93%29.65 "HgN/A
6:00 AM37 °FLight rain. Partly cloudy.9 mph93%29.65 "HgN/A
5:30 AM37 °FLight rain. Partly cloudy.9 mph93%29.62 "HgN/A
5:00 AM37 °FLight rain. Partly cloudy.13 mph93%29.62 "HgN/A
4:30 AM37 °FPartly cloudy.7 mph93%29.59 "HgN/A
4:00 AM37 °FPartly cloudy.10 mph93%29.59 "HgN/A
3:30 AM39 °FLight rain. Passing clouds.8 mph93%29.59 "HgN/A
3:00 AM39 °FLight rain. Passing clouds.15 mph87%29.56 "HgN/A
2:30 AM41 °FLight rain. Partly cloudy.10 mph87%29.53 "HgN/A
2:00 AM41 °FLight rain. Passing clouds.9 mph87%29.53 "HgN/A
1:30 AM41 °FPartly cloudy.9 mph87%29.53 "HgN/A
1:00 AM41 °FMostly cloudy.6 mph87%29.50 "HgN/A
12:30 AM41 °FPartly cloudy.7 mph87%29.50 "HgN/A
12:00 AM41 °FLight rain. Passing clouds.9 mph93%29.50 "HgN/A
11:30 PM
Jan 31
41 °FPartly cloudy.7 mph87%29.50 "HgN/A
11:00 PM41 °FPartly cloudy.8 mph87%29.47 "HgN/A
10:30 PM41 °FLight rain. Partly cloudy.12 mph87%29.47 "HgN/A
9:30 PM39 °FPassing clouds.7 mph93%29.45 "HgN/A
9:00 PM41 °FPartly cloudy.7 mph87%29.45 "HgN/A
8:30 PM41 °FPassing clouds.9 mph87%29.45 "HgN/A
8:00 PM39 °FPassing clouds.7 mph87%29.45 "HgN/A
7:30 PM41 °FPartly cloudy.8 mph81%29.45 "HgN/A
7:00 PM39 °FPartly cloudy.6 mph93%29.42 "HgN/A
6:30 PM39 °FPassing clouds.6 mph93%29.42 "HgN/A
6:00 PM41 °FPartly sunny.6 mph87%29.39 "HgN/A
5:30 PM41 °FLight rain. Partly sunny.7 mph87%29.39 "HgN/A
5:00 PM43 °FLight rain. Partly sunny.13 mph81%29.39 "HgN/A
4:30 PM45 °FClear.8 mph71%29.36 "HgN/A
4:00 PM45 °FClear.10 mph76%29.36 "HgN/A
3:30 PM45 °FScattered clouds.12 mph76%29.36 "HgN/A
3:00 PM43 °FPartly sunny.9 mph81%29.36 "HgN/A
2:30 PM43 °FScattered clouds.10 mph87%29.36 "HgN/A
2:00 PM43 °FRain. Fog.14 mph76%29.36 "Hg2 mi
1:30 PM45 °FScattered clouds.9 mph81%29.33 "HgN/A
1:00 PM43 °FLight rain. Broken clouds.10 mph87%29.33 "HgN/A
12:30 PM45 °FBroken clouds.8 mph81%29.33 "HgN/A
12:00 PM43 °FClear.6 mph87%29.33 "HgN/A
11:30 AM43 °FClear.6 mph87%29.30 "HgN/A
11:00 AM41 °FLight rain. Broken clouds.7 mph87%29.30 "HgN/A
10:30 AM41 °FLight rain. Broken clouds.9 mph87%29.30 "HgN/A
10:00 AM41 °FMostly cloudy.3 mph93%29.27 "HgN/A
9:30 AM39 °FPartly sunny.3 mph93%29.24 "HgN/A
9:00 AM39 °FPartly sunny.3 mph93%29.24 "HgN/A
8:30 AM39 °FLight rain. Broken clouds.8 mph93%29.24 "HgN/A
8:00 AM39 °FClear.6 mph93%29.21 "HgN/A
Weather by CustomWeather, © 2014

See weather overviewHow to use our weather pages